Wind_Speed
47 50 54 56 57 58 60 62 62 63 64 64 65 65 65 66 69 71 74 77 92 99 98 101 107 110 106 103 107 103 95 89 92 91 93 95 92 91 87 83 82 77 73 69 68
44 45 49 53 56 59 60 61 61 62 62 63 63 63 63 61 61 62 63 68 84 104 103 103 103 109 107 107 108 106 99 98 95 94 97 96 92 93 90 91 89 83 78 76 74
40 42 44 48 52 56 59 60 61 63 62 61 61 61 60 59 57 55 53 59 73 97 102 100 102 106 106 113 110 108 106 101 101 100 101 94 93 102 93 93 96 85 82 79 78
37 39 40 42 44 48 51 56 59 60 61 62 63 62 61 60 55 51 48 51 65 90 99 99 102 105 108 112 109 111 110 109 105 105 100 100 95 93 95 85 92 88 88 86 85
35 36 38 39 40 42 44 47 52 55 58 58 59 59 61 62 60 51 48 45 60 84 97 98 99 104 106 108 112 111 110 113 111 110 110 103 101 92 96 96 94 94 96 92 85
39 40 37 37 37 37 39 39 43 45 51 54 56 57 55 56 57 54 49 41 49 75 96 99 99 102 105 109 112 110 111 116 118 115 112 111 107 104 79 91 101 97 92 85 82
34 41 42 38 34 34 35 35 36 39 40 43 49 52 53 52 52 54 49 45 39 58 93 98 99 101 104 107 108 109 110 111 116 118 118 117 111 99 97 93 96 104 99 92 84
25 32 39 41 37 32 31 31 31 31 34 38 39 44 46 50 52 50 49 47 42 46 73 99 101 100 103 105 107 112 114 114 113 118 118 119 103 106 109 108 105 104 108 108 101
24 21 29 36 39 37 32 29 30 29 30 32 35 40 43 47 48 48 51 51 48 44 53 83 102 101 102 105 109 113 117 123 123 120 120 120 109 110 110 110 109 107 106 108 108
38 21 20 25 34 37 37 32 30 29 31 30 30 33 36 41 46 48 51 51 53 51 48 60 89 102 102 104 107 110 116 116 122 128 124 121 117 120 117 112 108 110 113 110 111
66 46 24 21 22 33 35 37 35 30 32 32 33 30 32 36 37 44 49 50 53 56 56 54 63 93 103 104 106 109 112 119 119 120 124 124 122 121 125 124 117 107 99 112 110
91 72 50 31 21 24 32 35 37 35 35 34 35 33 35 35 35 38 43 48 52 55 60 62 64 65 86 105 108 110 111 114 117 121 122 121 121 122 127 128 128 124 117 103 101
92 89 72 51 33 21 26 32 34 36 38 38 35 36 38 39 40 41 41 43 46 53 59 64 68 71 72 79 101 112 112 113 115 118 121 123 118 120 125 122 123 124 126 125 120
91 91 89 71 50 33 22 26 33 37 39 39 40 42 42 42 42 43 45 46 47 49 54 60 67 74 78 81 82 92 110 116 116 117 119 121 117 121 122 127 128 128 127 128 126
89 90 90 88 74 53 35 24 25 33 37 40 43 46 47 48 48 44 47 50 52 54 56 59 63 68 76 84 88 90 92 103 115 120 121 119 122 111 119 122 125 125 125 124 126
87 89 90 90 88 77 54 38 28 27 32 36 43 47 49 49 49 50 52 53 54 55 58 64 66 70 75 80 87 94 98 99 101 109 118 120 126 107 117 119 123 126 125 125 122
84 87 88 90 90 87 77 59 42 34 25 30 40 46 46 49 51 52 53 55 58 59 63 67 69 73 78 81 85 89 97 103 105 102 103 110 123 108 113 119 121 123 124 124 124
82 84 87 89 90 90 87 79 61 43 31 23 25 36 44 50 52 54 54 53 56 60 63 67 70 78 84 84 82 85 89 94 94 100 107 108 99 97 103 113 120 123 123 123 122
82 83 85 87 89 90 91 88 79 62 44 32 24 21 24 39 47 52 52 51 52 55 57 61 65 73 80 77 79 81 86 88 84 88 92 94 100 104 103 102 106 115 120 123 122
80 82 84 85 88 91 92 92 89 79 62 47 36 26 23 22 29 35 41 40 42 49 50 50 51 62 63 59 63 65 70 73 76 76 81 81 87 90 96 105 112 112 109 107 110
78 80 84 85 86 89 91 92 92 89 77 63 48 39 32 28 23 26 31 33 35 36 38 42 45 52 51 47 49 56 56 59 61 64 62 65 71 85 88 94 102 105 110 109 104
77 78 80 84 85 88 90 91 93 94 89 74 62 50 38 30 28 24 24 25 31 33 37 38 40 40 39 37 41 45 46 45 45 53 53 48 50 73 74 82 89 94 96 97 97
75 78 78 81 84 86 88 90 90 91 93 86 73 60 47 37 30 25 25 27 32 30 35 32 32 32 38 36 35 35 37 40 41 39 42 37 49 60 59 63 71 81 85 83 83
73 75 77 78 80 83 87 90 91 90 91 91 81 70 59 44 36 28 26 27 29 29 31 31 28 28 32 37 36 32 31 28 31 33 29 31 40 49 51 54 59 57 61 71 75
72 73 77 80 80 81 85 89 92 94 93 93 89 75 64 51 42 35 30 25 27 26 26 26 28 29 25 24 26 25 26 24 28 25 23 22 38 40 38 46 50 52 53 53 58
72 73 75 78 80 82 85 87 90 95 94 94 93 84 66 53 45 39 32 26 27 26 24 25 27 26 26 23 23 25 21 21 23 20 19 29 31 21 40 39 37 38 38 38 39
74 74 76 76 77 80 84 87 90 94 98 96 93 88 70 54 47 40 32 28 26 25 22 23 22 22 27 21 21 19 17 15 16 16 20 20 22 27 26 29 29 28 30 32 34
Wind_Direction
266 261 259 257 256 255 254 253 253 254 254 255 256 256 255 257 258 255 250 245 234 234 230 226 225 225 225 222 224 225 226 227 228 231 233 237 240 239 239 240 245 242 240 241 243
268 265 261 258 256 255 254 254 254 253 253 254 255 255 256 255 257 259 259 249 234 224 223 223 224 223 225 224 224 225 225 226 228 229 232 236 241 241 241 243 242 238 245 242 242
270 267 264 261 259 256 254 253 254 255 254 254 254 254 255 255 256 262 269 251 235 221 220 221 222 223 224 224 223 223 224 225 226 228 231 232 239 242 242 243 244 246 242 244 247
265 264 264 263 262 259 257 256 254 252 252 253 253 254 254 255 256 259 266 254 235 219 219 220 221 222 224 224 225 223 224 225 228 227 231 231 233 239 240 243 241 242 240 243 250
261 260 261 260 261 261 260 258 254 252 251 251 252 252 253 255 254 255 259 262 236 220 218 221 221 223 224 225 226 224 227 225 227 230 228 232 233 238 239 243 247 244 245 248 246
261 258 256 259 259 259 259 260 258 255 251 249 248 250 252 254 253 251 254 259 243 224 218 221 222 224 225 225 227 227 227 227 227 229 230 230 233 234 238 242 245 243 243 242 246
269 261 258 254 258 258 258 259 258 254 252 249 248 248 248 251 250 248 247 252 251 231 220 220 222 224 225 227 226 227 228 229 230 230 231 231 231 235 236 238 243 241 239 240 238
296 270 260 258 252 255 257 257 258 256 251 250 249 247 246 247 247 248 245 245 247 240 227 220 222 224 226 228 228 225 226 230 228 229 230 233 230 235 236 237 242 246 245 243 238
338 303 273 260 258 253 254 257 255 255 256 253 250 247 244 244 246 246 245 241 241 242 234 226 223 225 226 228 229 228 228 228 228 230 231 232 231 234 237 239 242 244 249 247 248
14 342 309 277 261 258 255 255 256 254 254 253 254 249 245 245 244 243 245 243 240 240 240 232 228 227 227 229 230 231 231 232 233 234 235 236 233 235 237 238 240 246 248 251 249
27 20 349 313 276 259 257 256 258 253 255 253 250 250 251 248 242 242 243 244 243 241 239 238 235 230 229 230 232 232 232 232 234 236 236 236 236 236 239 239 238 238 243 250 252
28 25 20 3 321 275 259 259 257 259 257 255 254 251 250 250 249 248 244 242 242 242 242 238 238 237 235 232 233 234 234 233 235 236 237 237 235 236 237 240 240 239 239 238 245
26 26 24 19 6 320 278 262 264 263 258 256 257 256 254 252 248 247 248 247 245 243 242 242 241 239 238 237 237 235 236 237 236 237 237 236 235 236 238 238 240 242 242 243 243
23 25 25 23 17 4 324 284 268 262 261 260 256 254 252 252 254 254 251 249 247 246 246 244 243 242 241 241 239 239 238 237 238 238 238 238 234 237 238 239 240 244 245 243 245
19 21 23 24 22 16 2 336 291 271 263 258 256 256 255 253 252 249 251 251 250 248 249 247 247 245 245 243 242 241 240 240 239 239 238 240 239 234 238 238 240 242 244 245 245
17 17 19 20 22 21 15 4 342 309 276 261 256 256 256 257 258 256 250 251 253 253 251 252 251 251 249 247 246 244 243 242 241 241 241 240 243 233 239 239 240 241 243 244 244
15 15 15 16 18 19 19 15 6 347 318 278 263 260 262 259 256 254 254 251 251 253 254 256 255 255 255 254 252 250 248 246 245 244 242 242 243 240 238 241 241 242 241 242 245
12 13 13 12 13 16 17 18 13 7 352 321 294 274 260 260 260 260 260 259 260 259 258 259 260 257 258 257 257 258 256 253 250 249 246 246 245 243 241 240 243 242 243 242 242
10 10 10 10 10 12 14 16 16 13 6 354 331 309 273 261 260 262 264 264 264 265 263 261 262 263 263 263 262 260 259 258 255 251 249 248 247 243 243 241 240 243 241 242 242
5 7 7 8 8 9 10 12 14 13 10 6 356 342 321 290 265 262 262 259 260 263 266 268 264 267 269 267 266 264 262 262 260 255 252 246 246 245 240 241 241 240 242 242 241
3 3 5 4 6 7 7 8 10 12 11 7 4 352 340 328 304 277 268 271 269 272 275 273 276 274 272 270 268 265 259 260 261 262 255 248 245 243 240 238 240 240 240 240 241
359 1 2 2 3 4 5 5 6 7 8 6 4 358 349 333 320 303 287 279 281 284 284 286 279 277 276 272 263 265 269 264 258 259 260 249 246 243 239 239 238 239 238 238 238
356 357 358 0 360 0 1 3 4 4 4 4 1 359 354 341 328 311 292 287 292 294 293 290 279 278 284 281 274 268 262 264 262 258 257 251 240 241 239 239 238 236 237 236 234
352 355 355 357 359 358 359 359 0 2 1 0 0 357 351 346 333 325 304 289 294 300 299 295 289 286 282 279 285 288 282 273 268 263 256 244 245 239 237 236 237 236 235 233 231
349 352 353 353 356 356 357 357 357 358 360 357 357 355 351 343 336 328 314 302 295 297 299 293 291 295 291 280 283 282 283 277 270 264 252 238 237 232 233 232 231 228 228 226 224
347 349 352 351 353 353 354 354 355 354 357 356 354 351 350 342 333 330 314 312 297 298 304 296 296 295 285 277 273 280 275 273 265 262 233 221 229 223 222 221 222 222 221 217 210
345 345 348 350 352 351 352 351 352 353 353 354 353 349 345 341 330 326 316 308 296 296 300 292 291 289 288 288 284 295 299 272 259 242 229 221 207 213 215 204 200 196 189 180 182
Height
10641 10639 10638 10638 10639 10639 10640 10642 10644 10646 10649 10650 10652 10654 10655 10656 10655 10656 10660 10663 10670 10679 10692 10703 10713 10726 10742 10757 10768 10776 10792 10811 10813 10813 10808 10797 10813 10819 10831 10844 10843 10859 10867 10871 10877
10627 10625 10623 10623 10623 10623 10625 10626 10628 10631 10634 10635 10637 10639 10640 10641 10639 10637 10638 10638 10642 10654 10667 10683 10695 10710 10726 10738 10750 10763 10781 10790 10791 10792 10787 10799 10805 10803 10820 10826 10829 10842 10850 10857 10865
10614 10612 10610 10608 10607 10608 10608 10610 10612 10615 10618 10620 10622 10623 10625 10626 10626 10624 10624 10620 10623 10635 10651 10664 10679 10693 10706 10716 10732 10748 10765 10766 10773 10775 10776 10788 10788 10786 10805 10809 10819 10826 10834 10841 10849
10602 10599 10597 10595 10594 10594 10594 10595 10597 10600 10601 10603 10606 10607 10610 10610 10614 10615 10612 10607 10611 10621 10637 10649 10663 10674 10687 10700 10713 10732 10741 10750 10755 10757 10763 10775 10774 10776 10789 10799 10802 10809 10817 10824 10833
10588 10586 10585 10583 10582 10581 10581 10581 10583 10584 10585 10588 10590 10592 10594 10596 10598 10605 10602 10599 10601 10610 10623 10635 10649 10660 10671 10684 10696 10713 10720 10732 10737 10738 10746 10753 10763 10761 10786 10780 10781 10793 10802 10809 10819
10573 10572 10572 10572 10572 10570 10570 10570 10570 10570 10572 10574 10575 10578 10580 10582 10586 10590 10590 10592 10591 10596 10607 10620 10633 10645 10656 10667 10676 10692 10702 10711 10715 10717 10722 10733 10742 10748 10774 10761 10759 10772 10783 10791 10803
10559 10558 10558 10560 10561 10561 10560 10560 10560 10560 10560 10560 10562 10565 10568 10571 10570 10572 10582 10583 10582 10585 10594 10605 10618 10628 10639 10647 10664 10675 10685 10691 10698 10702 10710 10717 10735 10764 10747 10743 10739 10749 10764 10775 10787
10549 10547 10547 10549 10551 10552 10552 10552 10551 10550 10550 10551 10552 10553 10557 10557 10558 10564 10569 10573 10574 10575 10581 10591 10600 10611 10622 10632 10643 10653 10663 10666 10672 10680 10687 10697 10743 10735 10723 10725 10733 10739 10748 10757 10772
10543 10540 10538 10539 10541 10542 10543 10544 10543 10543 10542 10542 10542 10544 10546 10546 10549 10555 10555 10561 10564 10566 10570 10579 10586 10597 10605 10613 10622 10631 10640 10646 10654 10660 10675 10689 10721 10707 10709 10718 10726 10731 10728 10743 10754
10542 10536 10533 10531 10532 10534 10535 10536 10536 10536 10534 10534 10533 10535 10536 10537 10541 10543 10542 10549 10554 10558 10561 10567 10573 10579 10587 10597 10604 10613 10621 10630 10637 10640 10655 10672 10696 10692 10692 10703 10710 10715 10719 10718 10735
10549 10539 10531 10525 10523 10525 10526 10527 10529 10530 10527 10527 10525 10527 10526 10527 10530 10531 10535 10539 10542 10546 10551 10554 10556 10560 10571 10578 10583 10591 10598 10606 10611 10613 10631 10648 10667 10676 10671 10681 10693 10700 10703 10704 10710
10555 10543 10533 10525 10519 10518 10518 10518 10519 10522 10521 10519 10519 10520 10519 10519 10521 10521 10523 10527 10530 10533 10535 10541 10542 10547 10552 10559 10564 10569 10576 10584 10589 10596 10607 10620 10646 10649 10653 10657 10666 10678 10685 10688 10691
10562 10550 10537 10527 10520 10515 10512 10512 10512 10512 10512 10511 10511 10511 10509 10509 10511 10512 10513 10515 10517 10519 10521 10523 10526 10530 10533 10536 10542 10546 10555 10563 10570 10573 10581 10593 10619 10626 10630 10639 10642 10650 10659 10665 10672
10568 10557 10545 10532 10522 10514 10509 10506 10504 10502 10501 10504 10503 10501 10499 10500 10502 10502 10502 10503 10505 10505 10505 10507 10509 10511 10515 10517 10521 10526 10532 10538 10545 10551 10558 10564 10596 10600 10611 10619 10625 10626 10635 10639 10647
10572 10561 10551 10538 10528 10516 10507 10501 10497 10494 10493 10491 10491 10488 10490 10491 10491 10494 10490 10489 10490 10491 10492 10492 10492 10494 10494 10496 10500 10504 10508 10512 10519 10523 10530 10544 10550 10598 10586 10596 10602 10603 10603 10614 10625
10575 10564 10553 10543 10532 10519 10508 10499 10492 10486 10480 10480 10476 10474 10476 10480 10480 10479 10479 10477 10478 10479 10479 10475 10477 10477 10475 10476 10478 10483 10484 10486 10493 10498 10513 10516 10509 10581 10561 10570 10570 10575 10587 10592 10604
10578 10566 10555 10544 10534 10522 10510 10498 10488 10478 10473 10468 10463 10461 10464 10462 10462 10463 10464 10466 10466 10466 10463 10461 10461 10458 10456 10457 10457 10459 10459 10465 10470 10478 10489 10489 10491 10550 10541 10535 10545 10550 10560 10571 10577
10579 10567 10557 10545 10534 10522 10510 10498 10485 10475 10467 10461 10456 10451 10451 10447 10447 10448 10448 10451 10452 10449 10448 10446 10445 10437 10431 10432 10440 10438 10438 10437 10447 10453 10465 10462 10487 10505 10507 10517 10515 10523 10532 10544 10558
10580 10569 10558 10547 10534 10522 10510 10497 10485 10473 10463 10455 10449 10443 10442 10437 10435 10434 10435 10437 10435 10429 10428 10427 10425 10415 10405 10416 10416 10418 10414 10410 10418 10424 10434 10444 10454 10470 10479 10483 10490 10485 10496 10510 10527
10578 10568 10557 10546 10534 10519 10506 10495 10485 10471 10460 10451 10443 10437 10431 10429 10425 10421 10418 10420 10418 10413 10413 10412 10408 10393 10391 10396 10392 10393 10390 10389 10389 10399 10403 10419 10425 10432 10440 10448 10450 10460 10472 10488 10502
10577 10565 10553 10543 10533 10520 10507 10493 10481 10471 10459 10447 10440 10431 10423 10418 10416 10412 10409 10406 10404 10401 10398 10393 10390 10380 10378 10378 10376 10368 10371 10373 10373 10370 10377 10388 10398 10394 10406 10415 10418 10436 10448 10464 10479
10578 10566 10555 10542 10531 10520 10509 10492 10478 10466 10457 10447 10436 10427 10420 10412 10406 10401 10399 10395 10391 10388 10384 10380 10373 10368 10365 10365 10360 10356 10355 10357 10357 10352 10354 10366 10378 10361 10381 10388 10400 10411 10420 10438 10462
10577 10566 10554 10542 10528 10518 10507 10496 10483 10468 10455 10445 10432 10424 10415 10407 10400 10395 10391 10386 10381 10378 10370 10366 10363 10359 10352 10349 10347 10346 10346 10342 10340 10341 10339 10347 10345 10346 10361 10371 10378 10386 10397 10419 10437
10577 10568 10555 10544 10532 10517 10504 10493 10482 10470 10455 10441 10430 10417 10406 10401 10393 10389 10383 10378 10372 10368 10361 10355 10351 10348 10345 10340 10338 10335 10333 10332 10330 10328 10329 10334 10336 10337 10345 10353 10360 10375 10389 10398 10410
10574 10563 10550 10538 10529 10517 10504 10490 10475 10463 10452 10435 10423 10413 10401 10390 10384 10379 10373 10369 10363 10359 10354 10348 10340 10338 10337 10334 10330 10328 10323 10322 10319 10319 10320 10323 10318 10324 10337 10342 10349 10358 10369 10383 10398
10570 10561 10552 10537 10523 10509 10498 10487 10474 10459 10449 10433 10416 10403 10395 10384 10375 10369 10363 10359 10352 10349 10343 10339 10334 10332 10328 10326 10324 10319 10316 10314 10313 10312 10311 10308 10311 10325 10321 10332 10343 10352 10365 10378 10392
10564 10553 10547 10538 10525 10509 10495 10481 10468 10455 10439 10429 10414 10396 10384 10376 10366 10360 10353 10348 10344 10340 10336 10332 10330 10326 10320 10319 10315 10312 10311 10309 10305 10305 10303 10309 10311 10313 10324 10330 10339 10350 10360 10373 10389